Regional Weather Roundup
Issued by NWS

Home | Current Version | Previous Version | Text Only | Print | Product List | Glossary Off
Versions: 1 2 3 4 5 6 7 8 9 10 11 12 13 14 15 16 17 18 19 20 21 22 23 24 25 26 27 28 29 30 31 32 33 34 35 36 37 38 39 40 41 42 43 44 45 46 47 48 49 50

984
ASUS45 KBOU 101507
RWRCO

WEATHER ROUNDUP FOR COLORADO
NATIONAL WEATHER SERVICE DENVER/BOULDER CO
800 AM MST SAT DEC 10 2016

NOTE: "FAIR" INDICATES FEW OR NO CLOUDS BELOW 12000 FEET WITH NO
SIGNIFICANT WEATHER AND/OR OBSTRUCTIONS TO VISIBILITY.

COZ001>005-013-030-031-101600-
...NORTHWEST COLORADO...

CITY           SKY/WX    TMP DP  RH WIND       PRES   REMARKS
CRAIG          CLOUDY    27  22  81 E7        29.99F WCI  19
HAYDEN         CLOUDY    27  19  74 E8        29.98F WCI  18
MEEKER         FAIR      40  26  57 W10G24    30.01F
MOUNT WERNER   NOT AVBL
STEAMBOAT SPGS CLOUDY    22  20  95 CALM      30.00S
WALDEN           N/A     34  21  60 S7        29.98F WCI  28
$$

COZ006>008-011-101600-
...WEST CENTRAL VALLEYS...

CITY           SKY/WX    TMP DP  RH WIND       PRES   REMARKS
GRAND JUNCTION FAIR      23  20  88 NW6       30.13S WCI  16
MONTROSE       FAIR      25  22  88 CALM      30.14F
EAGLE          CLEAR     19  18  93 CALM      30.08F
RIFLE          FAIR      22  19  89 CALM      30.12F
DELTA          NOT AVBL
NUCLA          FAIR      28  23  80 E8        30.17F WCI  20
$$

COZ017>023-064>068-101600-
...SOUTHWEST COLORADO...

CITY           SKY/WX    TMP DP  RH WIND       PRES   REMARKS
DURANGO        FAIR      22  18  85 NE3       30.23F
CORTEZ         FAIR      20  17  88 NE3       30.19F
PAGOSA SPRINGS FAIR      18  17  96 CALM      30.25S
TELLURIDE      FAIR      36  14  40 NE5       30.21F
WOLF CREEK PAS FAIR      19  19 100 SW18G28   30.30S WCI   4
$$

COZ009-010-012-014-032>034-037-058>063-101600-
...CENTRAL COLORADO...

CITY           SKY/WX    TMP DP  RH WIND       PRES   REMARKS
ASPEN          FAIR      30  23  75 VRB5      30.05F WCI  25
BUENA VISTA    FAIR      37  14  39 SW3       30.05F
COPPER MTN     NOT AVBL
BERTHOUD PASS  LGT SNOW  21   9  58 W32G53    30.03F WCI   2
COTTONWOOD PAS FAIR      37  12  35 W26G45    30.05F
GUNNISON       LGT SNOW   9   5  85 E3        30.23S VSB 3/4
KREMMLING      CLOUDY    43  25  49 W10G18    30.01S
LEADVILLE      FAIR      22  13  68 E7        30.07F WCI  13
MONARCH PASS   FAIR      21  16  79 W37G48    30.25F WCI   1
SALIDA         FAIR      39  18  42 SW8G20    30.12F
SUNLIGHT       MOCLDY    23  21  93 SW24G37   30.11F WCI   7
WILKERSON PASS FAIR      28  10  47 SW16G24   30.10S WCI  17
$$

COZ069>075-101600-
...SAN LUIS VALLEY/SANGRE DE CRISTO MOUNTAINS...

CITY           SKY/WX    TMP DP  RH WIND       PRES   REMARKS
ALAMOSA        FAIR       5   1  83 NW5       30.20S WCI  -4
LA VETA PASS   FAIR      27  19  74 NE35G46   30.08F WCI   9
SAGUACHE       FAIR      18  12  79 N6        30.19S WCI   9
$$

COZ035-036-038>040-101600-
...NORTHERN COLORADO FRONT RANGE...

CITY           SKY/WX    TMP DP  RH WIND       PRES   REMARKS
DENVER INTL AP MOCLDY    23  18  81 SW7       29.87F WCI  15
DMNS CITY PARK   N/A     26  21  81 W7G14     29.87F WCI  19
AURORA         MOCLDY    31  23  73 W6        29.87F WCI  25
FRONT RANGE AP MOCLDY    30  21  69 W6        29.88  WCI  24
ERIE MUNI ARPT FAIR      18  17  95 SE5       29.88F FOG     WCI  11
BOULDER MUN AP FAIR      21  19  93 CALM      29.89F FOG
CENTENNIAL     FAIR      38  22  52 S9        29.87F
BROOMFIELD     PTCLDY    28  23  80 S6        29.87  WCI  22
FORT COLLINS   FAIR      18  16  93 CALM      29.90F
LONGMONT       FAIR      17  13  87 W3        29.93S FOG
$$

COZ041-046-047-076>085-087-088-101600-
...PIKES PEAK/PALMER DIVIDE AND SOUTHERN FOOTHILLS...

CITY           SKY/WX    TMP DP  RH WIND       PRES   REMARKS
COLO. SPRINGS  MOCLDY    31  19  61 NE7       29.95F WCI  24
A. F. ACADEMY  FAIR      26  18  71 VRB5      29.94F WCI  21
SCHRIEVER AFB  NOT AVBL
ELLICOTT       FAIR     N/A N/A N/A CALM      29.94F
FALCON         FAIR      35  19  51 CALM      29.97F
FORT CARSON    FAIR      29  19  67 NW3       29.94F
LIMON          FAIR      15  13  91 NW3       29.93F
MONUMENT HILL  FAIR      36  18  48 S7        29.95F
TRINIDAD       FAIR      41  18  39 W14       30.00F
$$

COZ042>045-048>051-090-091-101600-
...NORTHEAST COLORADO...

CITY           SKY/WX    TMP DP  RH WIND       PRES   REMARKS
GREELEY ARPT   FAIR      14  11  87 CALM      29.93F
AKRON          FAIR      19  15  84 W8        29.90F WCI   9
BURLINGTON     FAIR      24  19  81 SW8       29.96F WCI  15
WRAY           NOT AVBL
STERLING       FAIR      16  14  93 S5        29.94F WCI   9
HOLYOKE        CLOUDY    21  19  93 S3        29.97F
FORT MORGAN    FAIR      15  12  91 W5        29.91F WCI   7
$$

COZ086-089-092>099-101600-
...SOUTHEAST COLORADO...

CITY           SKY/WX    TMP DP  RH WIND       PRES   REMARKS
PUEBLO         FAIR      19  13  77 NW3       29.97F
LA JUNTA       FAIR      20  13  74 NW7       29.99F WCI  11
LAMAR          FAIR      16  12  84 CALM      30.00F
SPRINGFIELD      N/A     29  23  78 NE7       29.98F WCI  22
$$




USA.gov is the U.S. government's official web portal to all federal, state and local government web resources and services.